PROFILE

 METAR AND TAF INFORMATION
ADDS - METARS form results

(0341 UTC 13 July 2020)
http://aviationweather.gov/metar/data/
 
ENAT 130320Z 08003KT CAVOK 14/09 Q1017 RMK WIND 700FT 03005KT
ENAT 130250Z AUTO 09003KT 9999 R11///// R29/P2000N // FEW094/// 14/09 Q1017 RMK WIND 700FT 03003KT
TAF ENAT 130200Z 1303/1312 34005KT 9999 SCT040 

 AIRPORT MAP

 RUNWAY INFORMATION
Runway 11 Runway length 7165 ft Runway width 131 ft
Runway elevation 8 ft Runway displaced threshold 674 ft Runway heading 121
Runway 29 Runway length 7165 ft Runway width 131 ft
Runway elevation 7 ft Runway displaced threshold 418 ft Runway heading 301

 AIRPORT FREQUENCIES
Type ATIS Name ATIS Frequency 118.175 MHZ
Type TWR Name TWR Frequency 118.1 MHZ

 AIRPORT NEAR NAVIGATION AIDS
Type NDB Name Alta Frequency 358 KHZ
Type VOR-DME Name Alta Frequency 117400 KHZ